Temperature
20 20 20 20 18 17 18 19 19 19 19 19 19 18 17 17 17 17 17 17 17 17 17 17 17 17 17 17 17 17 17 17 17 17 17 17 17 17 17 17 17 17 17 17 17 17 17 17 17
20 21 21 20 17 17 19 19 19 19 19 19 19 18 17 17 17 17 17 17 17 17 17 17 17 17 17 17 17 17 17 17 17 17 17 17 17 17 17 17 17 17 17 17 17 17 17 17 17
21 21 21 17 17 18 19 19 19 19 19 19 18 18 17 17 17 17 17 17 17 17 17 17 17 17 17 17 17 17 17 17 17 17 17 17 17 17 17 17 17 17 17 17 17 17 17 17 17
21 21 20 17 18 18 19 19 19 19 19 19 18 17 17 17 17 17 17 17 17 17 17 17 17 17 17 17 17 17 17 17 16 17 17 17 17 16 16 16 17 16 16 16 16 16 16 16 16
21 21 17 17 19 19 19 19 20 19 19 18 18 17 17 17 17 17 17 17 17 17 17 17 17 17 17 17 17 17 17 16 16 16 17 17 16 16 16 16 16 16 16 16 16 16 16 16 16
21 18 17 18 19 19 19 19 19 19 18 18 18 17 17 17 17 17 17 17 17 17 17 17 17 17 16 17 16 17 17 17 16 16 16 16 16 16 16 16 16 16 16 16 16 16 16 16 16
20 16 17 18 18 19 19 20 19 18 18 18 18 17 17 17 17 17 17 17 17 17 17 17 17 17 16 16 16 16 16 17 16 16 16 16 16 16 16 16 16 16 16 16 16 16 16 16 16
21 17 18 18 18 19 20 20 19 19 18 18 18 17 17 17 17 17 17 17 17 17 17 17 17 16 16 16 16 16 16 16 16 16 16 16 16 16 16 16 16 16 16 16 16 16 16 16 16
21 17 17 18 18 19 19 19 19 19 18 18 18 18 18 17 17 17 17 16 17 17 17 16 16 16 16 16 16 16 16 16 16 16 16 16 16 16 16 16 16 16 16 16 16 16 16 16 16
20 17 19 19 19 19 19 19 19 19 18 18 18 18 18 17 17 17 17 17 17 17 16 16 16 16 16 16 16 16 16 16 16 16 16 16 16 15 15 15 15 15 15 15 15 15 15 16 15
20 18 19 19 20 20 19 19 19 19 17 18 18 18 17 17 17 17 17 17 17 17 16 16 16 16 16 16 16 16 16 16 16 16 16 15 15 15 15 15 15 15 15 15 15 15 15 15 15
19 19 20 20 20 20 20 19 19 19 19 19 19 19 18 17 17 17 17 17 17 16 16 16 16 16 16 16 16 16 16 16 16 15 15 15 15 15 15 15 15 15 15 15 15 15 15 15 15
20 20 20 20 20 20 20 19 19 19 19 19 19 18 18 17 17 17 17 17 17 16 16 16 16 16 16 16 16 16 16 16 15 15 15 15 15 15 15 15 15 15 15 15 15 15 15 15 15
20 20 20 20 20 20 19 19 19 19 19 19 18 18 18 18 17 17 17 17 17 17 17 16 16 16 16 16 16 16 16 16 15 15 15 15 15 15 15 15 15 15 15 15 15 14 14 14 14
20 19 19 19 20 19 19 18 18 19 19 18 18 18 18 18 18 17 17 17 17 17 17 16 16 16 16 16 16 16 16 16 16 15 15 15 15 15 15 15 15 14 14 14 14 14 14 14 14
19 19 18 19 19 19 19 18 18 19 18 18 18 18 18 17 18 18 17 17 17 17 17 16 16 16 16 16 16 16 16 16 15 15 15 15 15 15 15 14 14 14 14 14 14 14 14 14 14
18 18 18 19 19 19 18 18 18 18 18 17 17 17 17 17 17 17 18 17 17 17 17 16 16 16 16 16 16 16 16 16 15 15 15 15 15 15 14 14 14 14 14 14 14 14 14 14 14
18 18 18 18 19 18 18 17 17 17 17 17 17 17 17 17 18 18 17 17 17 17 17 17 16 16 16 16 16 15 15 15 15 15 15 15 15 15 14 14 14 14 14 14 14 14 14 13 13
19 18 18 18 19 18 17 17 17 17 17 16 17 17 17 18 18 18 17 17 17 17 17 16 16 16 16 16 16 15 15 15 15 15 15 15 15 14 14 14 14 14 14 14 14 14 13 13 13
18 18 18 18 18 18 17 17 17 17 16 17 17 17 17 18 18 18 17 17 17 17 17 16 16 16 16 16 16 16 15 15 15 15 15 15 14 14 14 14 14 14 14 14 14 13 13 13 13
18 18 18 18 18 18 18 17 17 16 17 17 17 17 18 18 18 18 17 17 17 17 17 16 16 16 16 16 16 15 15 15 15 15 15 15 14 14 14 14 14 14 14 13 13 13 13 13 13
18 19 19 18 17 16 17 16 16 15 15 15 16 16 17 18 18 18 18 17 17 17 17 16 16 16 16 16 16 15 15 15 15 15 15 15 14 14 14 14 14 14 14 14 13 13 13 13 13
18 18 18 18 17 16 16 16 15 15 15 15 15 16 17 17 18 18 18 18 17 17 17 17 16 16 16 16 16 16 15 15 15 15 15 15 14 14 14 14 14 14 13 13 13 13 13 13 13
18 17 16 15 15 16 16 16 15 15 15 15 16 16 17 17 17 17 17 17 17 17 17 17 16 16 16 16 16 16 15 15 15 15 15 15 14 14 14 14 14 14 14 13 13 13 13 13 13
17 16 15 16 15 15 16 16 15 16 15 15 15 16 17 17 17 17 17 17 17 17 17 17 16 16 16 16 16 15 15 15 15 15 15 15 15 14 14 14 14 14 14 14 13 13 13 13 13
17 16 15 16 15 15 15 15 15 16 16 16 16 16 16 16 17 17 17 17 17 17 17 17 17 16 16 16 15 15 15 15 15 15 15 15 15 15 14 14 14 14 14 14 14 14 13 13 13
17 15 15 15 15 15 15 15 15 16 16 15 15 16 16 16 17 17 17 17 17 17 17 17 16 16 16 16 15 15 15 15 15 15 15 15 15 15 14 14 14 14 14 14 14 14 14 13 13
17 15 14 15 15 15 15 15 15 16 15 15 15 15 16 16 16 17 17 17 17 17 16 16 16 16 16 16 15 15 15 15 15 15 15 15 15 15 14 14 14 14 14 14 14 14 14 13 13
16 16 14 13 14 14 14 15 15 15 15 15 15 15 16 16 16 16 16 16 16 16 16 16 16 16 15 15 15 15 15 15 15 15 15 14 14 14 14 14 14 14 14 14 14 14 13 13 13
16 16 14 14 14 13 13 14 15 15 15 15 15 15 16 16 16 16 16 16 16 16 16 16 15 15 15 15 15 15 15 15 15 15 14 14 14 14 14 14 14 14 14 14 14 14 13 13 13
Wind_Speed
1 4 3 4 6 6 3 2 0 2 3 2 4 6 6 4 2 2 1 2 2 2 3 4 6 7 7 8 8 9 9 9 9 9 9 9 9 9 9 8 8 10 10 11 10 11 11 10 11
2 3 4 5 5 4 2 2 1 1 4 4 5 5 6 4 2 3 1 1 3 3 4 5 7 7 8 8 8 8 9 9 9 9 10 10 10 9 9 8 8 10 10 11 11 11 11 11 12
3 3 4 5 4 4 2 1 2 3 4 3 4 5 4 2 2 2 1 3 4 4 5 5 8 8 8 9 9 9 9 9 9 9 10 10 10 10 10 11 11 11 11 11 11 11 12 12 12
4 5 5 5 4 1 2 2 4 4 4 5 4 4 3 2 2 3 4 4 4 4 5 5 8 8 8 9 9 10 10 9 10 10 10 10 10 10 11 13 13 12 12 12 12 12 12 12 13
4 5 6 4 2 1 0 2 2 3 3 3 4 4 2 4 4 6 6 5 4 4 5 5 7 7 8 9 10 10 10 10 10 11 10 10 10 11 12 13 13 13 13 12 13 12 13 13 13
5 5 5 2 1 1 1 1 3 4 4 4 5 4 1 2 4 5 5 4 4 4 5 5 6 7 8 9 10 10 10 10 10 10 10 10 11 12 13 13 13 14 13 14 14 14 14 14 14
5 5 4 3 2 0 0 1 3 4 3 2 4 5 1 1 3 5 5 5 5 5 5 5 6 6 7 8 9 10 10 10 10 10 10 11 11 12 12 12 13 13 14 14 14 15 14 14 15
5 5 4 2 2 1 1 2 2 3 3 3 3 5 4 4 4 6 6 5 4 4 4 4 6 6 6 6 8 9 10 10 10 11 11 11 11 11 12 12 12 13 13 14 14 15 15 15 15
4 5 2 3 5 3 2 3 2 3 5 3 2 2 4 8 8 7 5 3 3 3 2 3 4 5 6 6 7 8 8 9 9 10 11 10 10 10 10 10 11 12 13 13 14 15 15 15 15
5 4 3 3 4 4 3 3 3 4 4 2 3 4 6 9 8 7 6 4 2 1 1 1 2 3 4 4 5 6 6 7 8 8 8 9 9 9 9 11 12 12 12 13 14 15 14 13 12
3 4 2 1 3 4 4 3 3 6 2 4 6 7 8 8 7 7 5 5 4 2 1 1 1 2 3 3 4 4 5 5 6 6 7 7 8 9 9 9 10 11 11 11 11 12 11 11 10
3 1 2 2 3 4 4 4 3 3 3 3 6 9 9 9 8 7 6 5 3 2 2 1 1 2 2 2 2 3 3 3 3 4 5 6 5 6 6 6 7 8 8 8 9 9 10 11 11
3 1 2 3 4 4 6 4 3 1 1 5 7 8 8 8 6 5 5 5 5 4 3 2 2 2 2 2 1 2 2 3 3 3 4 5 4 4 5 5 6 7 8 7 7 8 8 8 9
2 3 3 3 3 2 5 2 2 1 3 6 7 6 6 7 6 5 5 5 5 5 4 3 2 2 3 2 2 1 2 2 3 3 3 4 5 4 4 4 5 5 7 7 7 7 6 6 7
4 4 4 1 2 2 4 2 2 2 5 6 5 5 4 5 5 5 6 6 5 4 4 4 4 3 3 2 2 2 2 3 3 3 3 4 5 5 5 4 4 4 7 8 8 8 7 5 6
4 4 1 3 1 2 5 3 4 3 6 5 4 4 4 4 4 4 4 4 4 4 3 4 4 4 3 3 2 3 3 4 3 4 4 4 5 6 5 4 3 5 7 6 5 4 5 5 5
4 1 1 3 1 2 3 3 3 3 5 5 5 4 4 3 3 4 4 4 4 5 5 4 4 4 3 3 3 3 4 3 3 4 4 4 5 6 6 4 4 6 6 4 4 4 4 4 4
2 1 1 2 2 3 2 3 3 3 5 5 5 5 4 5 6 5 4 4 4 4 4 5 4 3 3 3 3 3 3 2 3 3 3 4 6 7 6 5 5 5 4 4 4 4 4 3 3
3 2 2 3 2 2 3 4 5 4 5 5 5 5 5 6 5 3 3 3 3 3 4 4 5 4 3 3 2 2 1 1 1 2 3 5 6 7 6 4 4 4 3 3 4 4 4 3 2
3 2 1 2 1 2 2 4 4 4 6 6 7 7 7 5 3 3 3 3 4 4 4 4 4 4 4 3 3 2 2 1 1 2 3 3 5 6 6 5 3 3 4 4 3 3 3 2 2
1 3 3 3 2 3 1 5 3 3 3 3 3 4 5 7 7 5 4 5 4 5 5 5 5 4 4 4 3 3 3 3 2 1 1 1 3 4 4 5 4 4 4 4 3 3 4 2 1
3 4 4 2 1 2 1 3 6 4 4 4 4 4 5 6 6 5 5 5 5 6 5 5 5 5 4 5 5 4 4 3 2 2 1 1 2 4 4 4 4 4 3 4 3 3 2 3 2
4 1 2 1 2 1 1 2 6 3 4 6 5 5 5 5 6 6 6 6 5 4 4 5 5 4 4 5 5 5 3 3 2 1 2 1 1 2 3 4 4 3 3 3 3 3 2 2 3
3 5 4 4 4 1 3 3 5 3 5 5 3 3 3 3 3 4 4 3 3 3 3 5 5 4 5 5 5 6 6 4 3 2 2 1 1 1 2 3 3 3 3 4 4 3 3 2 2
5 5 4 4 3 4 2 2 5 5 4 3 3 2 2 2 2 2 3 3 3 3 4 5 5 4 4 5 5 5 6 5 5 4 4 3 2 2 3 3 3 3 3 4 4 3 3 4 3
2 6 5 3 3 4 2 3 5 5 3 2 1 1 1 1 1 2 3 4 4 5 4 5 5 5 5 5 5 4 4 4 4 5 4 5 4 4 4 4 3 3 3 3 3 3 3 3 3
4 3 4 5 2 1 4 5 5 2 4 5 4 3 1 0 1 1 1 2 3 3 3 4 5 5 5 5 4 4 4 4 4 4 4 3 3 3 4 4 4 3 3 3 3 3 3 3 3
3 6 5 4 2 3 4 4 4 5 4 3 3 2 1 1 0 0 1 1 2 2 2 2 3 4 4 4 4 4 4 4 4 3 4 4 3 3 3 4 4 4 4 3 3 3 3 3 2
2 3 4 4 4 4 2 5 3 4 3 2 2 2 1 1 0 0 0 0 0 1 2 2 2 2 2 3 3 3 3 4 4 4 4 4 3 3 4 4 4 4 4 4 4 4 4 3 3
3 4 5 4 3 4 3 5 4 3 2 1 2 2 2 1 1 0 0 1 2 1 1 2 2 2 2 3 3 3 3 3 4 4 4 4 4 3 3 3 4 4 4 4 4 4 4 4 4
Wind_Direction
33 84 83 62 56 54 54 351 36 88 68 52 71 81 92 82 87 132 276 87 85 71 50 60 68 73 73 71 72 75 78 78 77 76 77 78 77 78 79 82 88 89 84 81 80 78 76 74 72
106 98 61 61 78 74 356 330 85 127 140 135 74 71 74 68 66 100 62 75 94 81 61 62 73 75 76 74 72 73 76 77 78 79 79 78 76 73 71 74 93 95 87 82 81 79 76 73 71
121 68 80 71 87 140 169 216 135 88 110 98 75 57 74 88 115 143 165 123 85 66 58 67 76 76 79 77 74 74 77 78 78 79 80 78 76 72 68 75 91 94 87 82 79 78 77 74 72
90 50 57 70 79 195 181 166 135 116 83 61 93 69 53 30 145 142 122 110 92 64 62 76 79 78 79 79 78 78 76 76 78 79 80 77 76 75 73 76 85 86 83 80 78 77 77 75 73
62 75 64 60 44 6 41 151 132 103 83 70 93 95 39 360 88 111 112 107 99 73 66 77 83 82 81 81 82 81 78 75 76 79 80 78 77 77 76 76 79 81 83 81 77 75 76 74 75
58 68 83 99 41 6 1 68 103 89 96 94 101 109 75 34 102 117 111 105 96 83 67 70 79 79 79 83 84 83 79 76 77 79 80 79 77 77 76 75 77 76 78 77 75 73 73 72 73
99 90 112 136 130 31 145 81 109 112 109 129 128 114 124 145 135 118 106 94 83 75 65 54 61 72 81 84 83 81 77 75 77 79 79 79 77 77 75 73 74 74 73 73 72 71 69 70 70
114 99 92 121 149 205 150 105 97 110 119 105 114 139 179 191 141 111 96 82 77 69 59 52 55 61 66 74 79 77 75 73 73 77 77 72 69 70 70 70 72 74 73 71 72 71 70 69 69
88 78 127 188 175 189 156 108 75 79 97 83 82 157 172 140 128 114 98 75 78 78 53 53 61 63 63 67 72 70 72 67 66 70 74 68 60 58 60 65 70 73 73 73 72 70 69 66 65
81 114 197 201 177 163 141 130 139 100 87 85 77 78 115 131 138 137 139 146 152 146 119 69 70 65 66 71 65 61 64 61 60 62 65 64 60 57 59 63 69 71 71 71 70 69 64 61 58
100 148 174 140 152 140 126 113 114 126 143 190 168 150 142 143 149 156 162 167 177 182 167 138 100 79 81 73 70 67 69 68 62 62 64 66 61 56 54 57 58 62 66 67 66 64 60 59 57
96 86 148 154 137 125 129 122 104 137 207 188 158 149 150 159 169 175 176 178 170 164 189 184 133 100 105 100 81 83 84 80 71 66 70 75 68 62 57 59 61 65 70 71 68 69 64 60 57
88 72 74 110 105 114 106 106 127 142 68 110 122 135 155 170 177 184 180 175 168 173 192 196 166 143 124 107 85 87 93 100 102 97 88 90 86 78 75 69 68 69 76 80 77 72 66 61 54
131 104 72 84 97 100 107 85 100 183 111 117 134 155 168 178 179 172 173 183 183 184 191 183 170 162 133 130 120 108 116 124 119 118 119 110 104 97 91 80 73 72 79 85 86 81 74 64 59
93 79 37 33 117 139 102 43 241 192 136 143 161 175 180 194 187 188 193 193 190 186 187 182 175 152 143 151 147 131 130 129 126 133 128 119 114 109 103 92 83 85 93 93 90 80 73 67 60
63 64 14 296 149 147 129 238 262 150 144 165 183 189 192 206 205 210 204 193 183 171 175 185 172 152 151 150 133 116 121 124 122 126 127 126 127 124 110 95 89 97 99 95 90 82 77 66 61
42 77 247 300 243 140 149 231 269 152 156 183 201 208 205 214 224 220 206 188 180 177 173 168 161 159 158 144 116 105 103 108 119 126 130 131 128 128 117 105 106 108 98 88 96 81 87 84 72
224 213 256 268 286 129 168 243 261 184 185 205 211 215 211 215 226 219 204 189 179 176 168 164 161 158 141 123 104 86 77 77 96 117 134 135 131 130 122 110 109 112 97 87 91 93 78 81 81
162 169 246 259 243 157 212 250 256 214 201 219 224 223 221 228 234 208 195 181 170 169 164 165 161 163 147 132 134 130 139 125 92 91 129 135 134 134 128 118 112 110 112 117 114 105 91 74 71
155 164 264 307 322 161 243 275 270 217 210 217 217 221 220 223 219 210 195 185 186 189 181 170 171 169 168 163 156 145 137 127 118 74 90 124 138 141 143 136 132 127 117 110 114 110 104 80 53
219 189 210 241 354 27 15 326 310 278 245 241 231 224 220 210 207 211 204 200 194 197 194 188 184 177 174 154 119 91 74 61 63 65 75 111 146 145 145 147 140 140 142 148 146 135 127 131 52
241 231 200 191 88 309 52 296 298 293 291 270 254 240 234 226 208 207 205 204 207 210 199 188 183 178 173 157 153 150 155 167 190 175 172 131 136 145 146 147 147 149 149 155 168 155 142 136 138
213 162 127 130 135 360 348 199 288 325 289 273 257 245 245 231 211 209 210 207 210 204 193 186 178 176 169 166 168 159 161 174 153 121 134 137 121 143 155 158 158 161 163 170 174 160 158 154 156
133 71 60 51 76 321 253 192 287 284 265 284 264 245 244 236 223 215 210 196 194 185 182 177 173 181 170 168 169 171 174 166 150 158 171 182 187 183 171 166 171 176 175 182 186 178 174 176 164
83 85 25 360 8 262 278 199 257 280 280 267 255 239 220 194 175 193 200 199 198 190 192 184 174 181 174 171 180 187 186 179 182 189 194 195 200 210 208 188 190 187 192 192 181 175 185 185 182
151 137 157 207 234 282 327 240 260 289 318 332 126 147 112 112 164 188 201 199 202 203 197 185 181 182 177 181 192 191 187 185 199 201 199 204 210 215 205 196 199 196 191 190 177 184 192 183 189
129 154 161 141 175 272 287 292 302 348 13 29 45 61 70 143 194 217 204 189 199 203 202 191 186 187 189 191 193 193 192 192 201 203 200 208 216 213 201 199 197 201 197 192 179 188 197 181 191
128 143 106 123 170 255 292 287 273 307 328 356 12 6 316 303 226 218 198 197 201 194 187 159 170 184 183 184 194 198 200 203 201 193 202 209 211 202 189 193 194 197 199 192 181 185 190 178 196
84 105 117 128 154 166 261 279 244 244 260 263 275 285 288 312 313 245 219 191 167 144 147 161 176 169 171 189 201 199 201 205 200 202 212 211 203 199 198 197 189 194 196 190 186 192 185 190 203
169 163 147 156 212 178 189 264 294 251 260 251 279 304 330 1 353 254 105 76 60 88 148 174 187 196 198 195 193 205 208 204 205 214 217 209 203 203 202 195 193 201 199 189 186 195 191 196 207
Height
1507 1507 1508 1509 1513 1525 1528 1524 1520 1520 1521 1522 1521 1522 1523 1526 1529 1534 1530 1528 1528 1528 1527 1527 1526 1526 1525 1525 1524 1524 1524 1524 1524 1524 1523 1523 1523 1523 1523 1522 1521 1523 1523 1524 1524 1525 1525 1525 1525
1507 1508 1510 1510 1522 1535 1532 1523 1522 1520 1521 1522 1522 1523 1525 1527 1528 1529 1528 1529 1529 1529 1529 1528 1528 1527 1527 1526 1526 1526 1525 1525 1525 1525 1525 1525 1524 1524 1522 1519 1518 1522 1524 1525 1526 1526 1526 1526 1526
1507 1508 1511 1514 1526 1533 1529 1522 1521 1521 1522 1522 1524 1525 1527 1528 1529 1529 1530 1530 1530 1530 1530 1530 1529 1529 1529 1528 1528 1527 1527 1527 1526 1526 1526 1526 1526 1525 1522 1517 1517 1522 1525 1526 1527 1527 1528 1528 1528
1509 1510 1512 1521 1527 1525 1523 1521 1521 1522 1523 1523 1525 1527 1529 1530 1530 1531 1531 1531 1531 1531 1531 1531 1531 1531 1530 1530 1530 1529 1529 1529 1528 1528 1528 1528 1527 1527 1525 1522 1523 1525 1527 1528 1529 1529 1529 1529 1529
1509 1511 1519 1528 1526 1523 1521 1521 1521 1522 1523 1525 1526 1528 1530 1531 1531 1531 1532 1532 1532 1533 1533 1533 1533 1532 1532 1532 1532 1531 1531 1531 1531 1530 1530 1530 1530 1529 1529 1528 1528 1529 1530 1530 1530 1530 1531 1531 1531
1510 1513 1528 1533 1528 1523 1522 1521 1522 1523 1525 1526 1527 1529 1531 1532 1532 1533 1533 1534 1534 1534 1534 1534 1534 1534 1534 1534 1534 1533 1533 1533 1533 1533 1532 1532 1532 1532 1532 1532 1532 1532 1532 1532 1532 1532 1533 1533 1533
1512 1518 1528 1529 1529 1526 1523 1522 1523 1524 1526 1527 1527 1529 1531 1532 1533 1534 1534 1535 1535 1535 1535 1535 1536 1536 1536 1536 1536 1536 1535 1535 1535 1535 1534 1534 1534 1534 1534 1534 1534 1534 1534 1534 1535 1535 1535 1535 1535
1512 1518 1526 1529 1529 1527 1523 1523 1524 1525 1527 1528 1528 1529 1531 1532 1534 1535 1535 1536 1536 1537 1537 1537 1537 1537 1537 1537 1538 1538 1537 1537 1537 1537 1536 1536 1536 1536 1536 1536 1537 1537 1537 1537 1537 1537 1537 1537 1537
1513 1523 1530 1527 1527 1525 1523 1524 1525 1526 1527 1528 1528 1529 1530 1532 1533 1535 1536 1537 1537 1538 1538 1538 1539 1539 1539 1539 1539 1539 1539 1539 1539 1539 1539 1539 1539 1538 1538 1539 1539 1539 1539 1539 1539 1539 1539 1539 1539
1514 1526 1524 1521 1521 1521 1522 1524 1525 1527 1528 1528 1529 1529 1531 1532 1534 1535 1536 1537 1538 1539 1539 1540 1540 1540 1541 1541 1541 1541 1541 1541 1541 1541 1541 1541 1541 1540 1541 1541 1541 1541 1541 1541 1541 1541 1541 1541 1541
1515 1521 1520 1519 1520 1521 1522 1524 1525 1526 1528 1528 1528 1529 1531 1532 1534 1535 1537 1538 1539 1539 1540 1541 1541 1542 1542 1542 1543 1543 1543 1543 1543 1543 1543 1543 1543 1542 1543 1543 1543 1543 1543 1543 1543 1543 1543 1542 1542
1517 1519 1519 1520 1520 1521 1523 1524 1526 1527 1528 1528 1528 1529 1531 1532 1534 1535 1537 1538 1539 1540 1541 1541 1542 1543 1543 1543 1544 1544 1544 1545 1545 1545 1545 1545 1544 1544 1544 1545 1545 1545 1545 1544 1544 1544 1544 1544 1544
1518 1520 1520 1520 1521 1522 1523 1525 1526 1527 1528 1528 1529 1530 1531 1533 1534 1536 1537 1538 1540 1540 1541 1542 1543 1543 1544 1544 1545 1545 1545 1546 1546 1546 1546 1546 1546 1546 1546 1546 1546 1546 1546 1546 1546 1546 1546 1546 1546
1519 1520 1521 1521 1522 1523 1524 1526 1527 1528 1528 1529 1530 1531 1532 1533 1534 1536 1537 1538 1539 1541 1541 1542 1543 1544 1544 1545 1545 1546 1546 1547 1547 1547 1547 1547 1548 1548 1548 1547 1547 1547 1547 1547 1547 1547 1547 1547 1547
1520 1522 1523 1523 1523 1524 1526 1529 1528 1527 1528 1529 1530 1532 1533 1534 1535 1536 1537 1538 1539 1541 1541 1542 1543 1544 1545 1545 1546 1546 1547 1547 1548 1548 1548 1548 1549 1549 1549 1548 1548 1548 1549 1549 1549 1549 1549 1548 1548
1522 1527 1531 1526 1524 1525 1529 1535 1527 1527 1528 1529 1530 1531 1532 1533 1534 1536 1537 1538 1539 1540 1541 1542 1543 1544 1545 1545 1546 1547 1547 1548 1548 1549 1549 1549 1549 1550 1550 1550 1550 1550 1550 1550 1550 1550 1550 1550 1550
1529 1535 1534 1529 1524 1525 1529 1532 1527 1527 1528 1529 1530 1531 1531 1532 1534 1535 1536 1538 1539 1540 1541 1542 1543 1544 1545 1545 1546 1547 1547 1548 1548 1549 1549 1550 1550 1550 1550 1551 1551 1551 1551 1551 1551 1551 1551 1551 1551
1535 1534 1534 1532 1526 1526 1529 1530 1527 1527 1528 1528 1529 1529 1530 1531 1532 1534 1535 1537 1538 1539 1541 1542 1542 1543 1544 1545 1546 1547 1547 1548 1549 1549 1550 1550 1551 1551 1551 1551 1552 1552 1552 1552 1552 1552 1552 1552 1552
1527 1531 1533 1530 1525 1527 1530 1529 1527 1526 1527 1527 1527 1527 1528 1529 1531 1533 1534 1535 1537 1538 1539 1541 1542 1543 1544 1544 1545 1546 1547 1548 1548 1549 1550 1550 1551 1551 1551 1552 1552 1552 1552 1552 1552 1552 1552 1552 1552
1527 1532 1533 1529 1525 1527 1530 1529 1525 1524 1524 1524 1525 1525 1526 1527 1529 1531 1532 1534 1535 1536 1538 1539 1540 1541 1543 1544 1545 1546 1547 1547 1548 1549 1550 1550 1551 1551 1551 1552 1552 1552 1552 1552 1553 1552 1552 1553 1553
1528 1530 1530 1530 1527 1527 1530 1532 1527 1524 1522 1523 1523 1523 1524 1525 1526 1528 1530 1532 1533 1534 1536 1537 1539 1540 1541 1543 1544 1545 1546 1547 1548 1548 1549 1550 1551 1551 1551 1552 1552 1552 1553 1553 1553 1553 1553 1553 1553
1531 1524 1525 1527 1534 1539 1535 1546 1532 1526 1524 1522 1521 1521 1522 1523 1524 1526 1528 1529 1531 1532 1534 1536 1537 1539 1540 1541 1542 1543 1544 1545 1547 1548 1549 1549 1550 1551 1551 1552 1552 1552 1553 1553 1553 1553 1553 1553 1553
1524 1521 1524 1527 1533 1540 1538 1544 1537 1527 1526 1522 1520 1519 1520 1521 1522 1524 1526 1527 1529 1531 1532 1534 1536 1537 1539 1540 1541 1542 1543 1545 1546 1547 1548 1549 1550 1550 1551 1551 1552 1552 1552 1553 1553 1553 1553 1553 1554
1520 1525 1529 1534 1539 1548 1540 1543 1541 1531 1525 1520 1518 1518 1518 1519 1521 1522 1524 1526 1528 1529 1531 1532 1534 1535 1537 1538 1539 1541 1542 1543 1545 1546 1547 1547 1548 1549 1549 1550 1551 1551 1552 1552 1552 1553 1553 1553 1553
1523 1535 1548 1549 1554 1551 1538 1541 1539 1524 1520 1518 1517 1517 1517 1518 1519 1520 1522 1524 1525 1527 1529 1530 1532 1533 1535 1536 1538 1539 1541 1542 1543 1544 1545 1546 1546 1547 1548 1548 1549 1550 1550 1551 1551 1552 1552 1552 1553
1526 1532 1549 1556 1557 1550 1541 1542 1532 1521 1519 1517 1516 1516 1516 1516 1518 1519 1520 1522 1524 1525 1527 1528 1530 1532 1533 1535 1536 1538 1539 1541 1542 1543 1543 1544 1544 1545 1546 1547 1547 1548 1549 1549 1550 1550 1551 1551 1551
1527 1533 1533 1544 1547 1551 1545 1537 1527 1519 1518 1517 1516 1515 1516 1516 1517 1518 1519 1521 1522 1524 1525 1527 1528 1530 1532 1533 1535 1536 1537 1539 1540 1541 1542 1542 1543 1543 1544 1545 1545 1546 1547 1548 1548 1548 1549 1549 1550
1522 1528 1538 1544 1552 1555 1547 1542 1536 1524 1521 1519 1518 1517 1516 1517 1517 1518 1519 1520 1522 1523 1524 1526 1527 1528 1529 1531 1533 1534 1535 1536 1538 1539 1539 1540 1541 1541 1542 1543 1543 1544 1545 1545 1546 1546 1547 1547 1548
1527 1530 1535 1543 1545 1553 1554 1545 1525 1523 1520 1519 1518 1517 1517 1517 1517 1518 1519 1520 1521 1522 1524 1524 1525 1526 1528 1529 1530 1532 1532 1534 1535 1536 1537 1538 1539 1539 1540 1541 1541 1542 1542 1543 1544 1544 1545 1545 1546
1521 1526 1533 1542 1545 1547 1550 1544 1520 1519 1518 1518 1518 1517 1517 1517 1517 1518 1519 1519 1520 1521 1522 1523 1524 1525 1526 1527 1528 1529 1530 1531 1532 1533 1534 1535 1536 1537 1537 1538 1539 1539 1540 1541 1541 1542 1543 1543 1544